Location: Gorze? G�rny
(49.8500°N, 19.5000°E)
Time: 04:45:55
(UTC+00:00)

ISS - Pass Details

Date: 13 May 2021
Orbit: 417 x 422 km, 51.6° (Epoch: 20 June)

Event Time Altitude Azimuth Distance (km) Brightness Sun altitude
Exits shadow 23:18:34 31° 290° (WNW) 763 -2.4 -20.9°
Maximum altitude 23:19:58 61° 360° (N) 482 -3.3 -20.9°
Drops below altitude 10° 23:23:19 10° 81° (E) 1,509 -0.7 -20.8°
Sets 23:25:26 0° 85° (E) 2,374 0.3 -20.7°
